Regional Weather Roundup
Issued by NWS

Home | Current Version | Previous Version | Text Only | Print | Product List | Glossary Off
Versions: 1 2 3 4 5 6 7 8 9 10 11 12 13 14 15 16 17 18 19 20 21 22 23 24 25 26 27 28 29 30 31 32 33 34 35 36 37 38 39 40 41 42 43 44 45 46 47 48 49 50

000
ASUS43 KLOT 040358
RWRIL

ILLINOIS REGIONAL WEATHER ROUNDUP
NATIONAL WEATHER SERVICE CHICAGO/ROMEOVILLE IL
1000 PM CST TUE MAR 03 2015

NOTE: "FAIR" INDICATES FEW OR NO CLOUDS BELOW 12,000 FEET WITH NO
SIGNIFICANT WEATHER AND/OR OBSTRUCTIONS TO VISIBILITY.

* THESE STATIONS ARE NOT UNDER NWS QUALITY CONTROL. THEY ALSO MAY NOT
  REPORT WEATHER SUCH AS PRECIPITATION OR FOG.

ILZ001-002-007-009-015-016-024-040500-
NORTHWEST ILLINOIS

CITY           SKY/WX    TMP DP  RH WIND       PRES   REMARKS
MOLINE         CLOUDY    28  20  71 NW17G28   29.93R WCI  16
$$

ILZ003-004-008-010-011-017-018-040500-
NORTH CENTRAL ILLINOIS

CITY           SKY/WX    TMP DP  RH WIND       PRES   REMARKS
ROCKFORD       NOT AVBL
$$

ILZ005-006-012>014-019>023-040500-
NORTHEAST ILLINOIS

CITY           SKY/WX    TMP DP  RH WIND       PRES   REMARKS
CHICAGO-OHARE  CLOUDY    31  23  72 W10       29.85R WCI  22
CHICAGO-MIDWAY CLOUDY    34  25  69 W8        29.87R WCI  27
AURORA         CLOUDY    32  26  78 W10       29.88R WCI  24
WAUKEGAN       NOT AVBL
DUPAGE AIRPORT CLOUDY    31  23  72 W10       29.85S WCI  22
WHEELING       MOCLDY    31  25  78 W9        29.86R WCI  23
NORTHERLY ISL    N/A     33  25  72 W9          N/A  WCI  25
$$

LMZ740>746-040500-
SOUTHERN LAKE MICHIGAN

STATION/POSITION SKY/WX   TEMP    WIND        PRES    VSBY  WAVE
                          AIR SEA DIR/SP/G                  HT/PER
                          (F)     (DEG/KT/KT) (MB)    (MI)  (FT/S)
WAUKEGAN HARBOR            31                   N/A
HARRISON CRIB              33     290/ 15/ 20   N/A
BURNHAM HARBOR             33     260/ 12/ 13   N/A
CALUMET HARBOR             33     270/ 13/ 18 1009.6R
MICHIGAN CITY              33     240/ 11/ 13   N/A
$$

ILZ025>027-034>036-040-047-049-050-058-095>099-040500-
WEST-CENTRAL ILLINOIS

CITY           SKY/WX    TMP DP  RH WIND       PRES   REMARKS
$$

ILZ028>032-037-038-041>044-048-051>054-059>061-040500-
CENTRAL ILLINOIS

CITY           SKY/WX    TMP DP  RH WIND       PRES   REMARKS
PEORIA         NOT AVBL
SPRINGFIELD    CLOUDY    36  29  75 NW12      29.91S WCI  28
TAYLORVILLE    NOT AVBL
$$

ILZ033-039-045-046-055>057-062-063-040500-
EAST-CENTRAL ILLINOIS

CITY           SKY/WX    TMP DP  RH WIND       PRES   REMARKS
CHAMPAIGN      CLOUDY    34  31  88 W10       29.90R WCI  26
MATTOON        CLOUDY    35  33  92 NW12      29.90S WCI  27
$$

ILZ079-100>102-040500-
SOUTHWEST ILLINOIS

CITY           SKY/WX    TMP DP  RH WIND       PRES   REMARKS
ALTON          DRIZZLE   39  37  93 NW7       29.92S WCI  34
BELLEVILLE     LGT RAIN  39  39 100 N2        29.90F
CAHOKIA*       LGT RAIN  41  38  89 N7        29.91S
$$

ILZ064>066-069>071-074>076-080>082-084>086-088>090-092>094-040500-
SOUTH-CENTRAL ILLINOIS

CITY           SKY/WX    TMP DP  RH WIND       PRES   REMARKS
CARBONDALE     LGT RAIN  41  40  96 W3        29.93R VSB 1/2
$$

ILZ067-068-072-073-078-083-087-091-040500-
SOUTHEAST ILLINOIS

CITY           SKY/WX    TMP DP  RH WIND       PRES   REMARKS
LAWRENCEVILLE  LGT RAIN  38  38 100 SW5       29.93S WCI  34
$$

ABBREVIATIONS USED IN REMARKS
   TC - TEMPERATURE IN CELSIUS
  WCI - WIND CHILL INDEX
   HX - HEAT INDEX
  VSB - VISIBILITY
$$



USA.gov is the U.S. government's official web portal to all federal, state and local government web resources and services.